sat.trackr.live / text

‹ back to catalog

STARLINK-35584

NORAD 66106 · 2025-236W

PAYLOAD ACTIVE UNKNOWN

§ Identity

Operator
Country
US
Launch date
2025-10-19
Launch site
AFWTR
Launch vehicle
Mass (kg)
RCS (m²)

Purposes: comms

External: N2YO · Heavens-Above · Gunter

§ Orbital elements

Epoch: 2026-05-25T04:00:03.998880Z

Period
93.85 min
Inclination
53.1605°
Eccentricity
0.0001587
Mean motion
15.34397260 rev/d
Perigee alt
461.6 km
Apogee alt
463.8 km
Semi-major
6,840.8 km
B*
-1.5898e-4
RAAN
108.5608°
Arg perigee
101.1919°
Mean anomaly
297.9404°
Rev number
570

§ Raw data

STARLINK-355841 66106U 25236W   26145.16671295 -.00005743  00000+0 -15898-3 0  99962 66106  53.1605 108.5608 0001587 101.1919 297.9404 15.34397260  5709

JSON: /api/v1/satellites/66106 · /tle

For live sub-satellite position, see the globe view (requires WebGL).

§ Visibility from observer

Set your observer location to see the next 7 days of passes ≥ 10°. The values pass through the URL so the page stays shareable.

No JS? Fill the form by hand. The geolocation button needs JavaScript.